Location: Beacon Field Observatory
(38.7700°N, 77.0829°W)
Time: 09:32:18
(UTC-05:00)

UKube-1 - Pass Details

Date: 16 December 2019
Orbit: 614 x 618 km, 98.5° (Epoch: 18 January)

Event Time Altitude Azimuth Distance (km) Brightness Sun altitude
Rises 05:59:28 0° 210° (SSW) 2,868 ? -15.1°
Reaches altitude 10° 06:02:38 10° 236° (SW) 1,970 ? -14.6°
Enters shadow 06:02:54 11° 239° (WSW) 1,919 ? -14.5°
